[[{"header":{"parameterUnit":"m.s-1","parameterCategory":1,"la1":30.2991,"la2":30.254,"lo1":-89.0895,"lo2":-89.0444,"dy":0.0017,"dx":0.0017,"nx":28,"ny":28,"refTime":"2025-03-09T09:00:00:Z","depth":0,"parameterNumber":2,"parameterNumberName":"U-component_of_WINDS"},"data":[0,0,0,0,0,0,0,0,0,0,0,0,0,0,0,0,0,0,0,0,0,0,0,0,0,0,0,0,0,0,0,0,0,0,0,0,0,0,0,0,0,0,0,0,0,0,0,0,0,0,0,0,0,0,0,0,0,0,-0.9637,-0.9638,0,-0.9698,-0.9699,-0.9699,-0.9699,-0.9698,-0.9698,-0.9697,-0.976,-0.9763,-0.9765,0,0,0,0,0,0,0,0,0,0,0,0,0,-0.9519,-0.9521,-0.9637,-0.9638,-0.9639,-0.9698,-0.9699,-0.97,-0.9699,-0.9698,-0.9697,-0.9696,-0.9759,-0.9762,-0.9765,0,0,0,0,0,0,0,0,0,0,0,0,0,-0.9574,-0.9522,-0.9637,-0.9646,-0.9647,-0.9698,-0.9699,-0.97,-0.97,-0.9698,-0.9697,-0.9696,-0.9758,-0.9762,-0.9766,-0.9812,0,0,-0.9777,-0.9778,0,0,0,0,0,0,0,0,-0.9571,-0.9579,-0.9644,-0.9645,-0.9647,-0.969,-0.968,-0.9737,-0.97,-0.968,-0.9697,-0.9695,-0.9738,-0.9743,-0.9757,-0.9815,-0.9818,-0.9777,-0.9779,-0.9781,-0.9782,0,0,0,0,0,0,0,-0.9567,-0.9576,-0.9661,-0.9645,-0.9647,-0.9646,-0.9652,-0.9691,-0.9715,-0.9681,-0.9681,-0.9689,-0.9738,-0.9754,-0.9759,-0.9819,-0.9777,-0.978,-0.9782,-0.9784,-0.9913,-0.9914,0,0,0,0,0,0,-0.9562,-0.9573,-0.9659,-0.9663,-0.9605,-0.9649,-0.9656,-0.9677,-0.9714,-0.9719,-0.969,-0.9688,-0.9748,-0.9754,-0.9761,-0.9815,-0.9781,-0.9784,-0.9786,-0.9912,-0.9913,-0.9915,0,0,0,0,0,0,-0.9559,-0.9569,-0.9657,-0.9618,-0.9629,-0.9652,-0.9676,-0.9679,-0.9694,-0.972,-0.9725,-0.9701,-0.9747,-0.9756,-0.9798,-0.9817,-0.9786,-0.9789,-0.991,-0.9912,-0.9914,-0.9926,0,0,0,0,0,0,-0.9556,-0.9569,-0.9587,-0.9618,-0.9631,-0.9694,-0.9677,-0.9681,-0.97,-0.9699,-0.9732,-0.9736,-0.9747,-0.9793,-0.9802,-0.9822,-0.9792,-0.9909,-0.9911,-0.9913,-0.9924,-0.9928,-0.9931,0,0,0,0,0,-0.9552,-0.9589,-0.9588,-0.9599,-0.9655,-0.9695,-0.9702,-0.9714,-0.9702,-0.972,-0.9736,-0.9735,-0.9814,-0.9797,-0.9807,-0.9829,-0.9908,-0.9911,-0.9913,-0.9922,-0.9927,-0.9931,0,0,0,0,0,0,-0.9562,-0.9594,-0.9593,-0.9642,-0.9665,-0.9695,-0.9719,-0.9719,-0.9747,-0.9745,-0.9757,-0.9765,-0.9807,-0.9822,-0.9803,-0.9873,-0.9859,-0.9864,-0.9862,-0.9867,-0.9871,-0.9866,-0.9795,0,0,0,0,0,-0.9569,-0.9599,-0.9626,-0.9666,-0.9678,-0.9696,-0.9714,-0.972,-0.9745,-0.9756,-0.9775,-0.98,-0.9829,-0.9849,-0.9878,-0.9925,-0.9931,-0.9945,-0.9948,-0.9951,-0.9955,-0.9978,-0.9984,-0.9924,-0.9924,-0.9924,0,0,-0.9586,-0.9607,-0.9626,-0.9669,-0.9688,-0.9718,-0.9705,-0.9738,-0.976,-0.9761,-0.9802,-0.9816,-0.9844,-0.9888,-0.9909,-0.9902,-0.9973,-0.9955,-0.9957,-0.996,-0.9982,-0.9987,-0.9992,-0.9926,-0.9926,-0.9925,0,0,-0.9631,-0.9651,-0.9686,-0.9704,-0.9732,-0.9743,-0.9751,-0.978,-0.9789,-0.983,-0.983,-0.9856,-0.9908,-0.9926,-0.9943,-0.999,-0.9989,-0.9999,-1.0019,-1.0041,-1.0046,-1.005,-1.0065,-1.007,-1.0003,-1.0003,-1.0003,0,-0.9649,-0.9694,-0.9703,-0.9735,-0.9753,-0.9753,-0.9787,-0.9805,-0.9841,-0.9853,-0.9845,-0.9907,-0.9926,-0.9973,-0.9984,-0.9998,-1.0006,-0.9996,-1.0044,-1.0048,-1.0052,-1.0067,-1.0073,-1.0004,-1.0004,-1.0004,-1.0004,0,-0.9713,-0.9744,-0.9768,-0.9801,-0.9822,-0.9855,-0.9867,-0.9887,-0.9889,-0.9901,-0.994,-0.9962,-0.9994,-1.0006,-1.001,-1.0052,-1.0047,-1.0041,-1.0027,-1.0059,-1.0072,-1.0078,-1.0005,-1.0005,-1.0005,-1.0005,0,0,-0.977,-0.9804,-0.9813,-0.9826,-0.9855,-0.9879,-0.991,-0.994,-0.9955,-0.9979,-1.0005,-1.0046,-1.004,-1.0058,-1.0064,-1.0084,-1.0116,-1.0075,-1.0076,-1.0081,-1.0161,-1.0165,-1.0171,-1.0115,-1.0117,-1.0118,-1.0158,0,-0.9817,-0.9873,-0.988,-0.9929,-0.9956,-0.9954,-0.9981,-1.0001,-1.0011,-1.0035,-1.0047,-1.0075,-1.0065,-1.0076,-1.0095,-1.0108,-1.0133,-1.0106,-1.0138,-1.014,-1.0131,-1.0179,-1.0184,-1.0221,-1.0164,-1.0165,-1.0165,0,-0.9881,-0.9904,-0.9955,-0.9977,-0.9988,-1.0013,-1.0038,-1.0062,-1.0083,-1.0089,-1.0107,-1.0109,-1.014,-1.0123,-1.0165,-1.0146,-1.0159,-1.0168,-1.0169,-1.0173,-1.0154,-1.0182,-1.0234,-1.0239,-1.0174,-1.0174,-1.0173,0,-0.9915,-0.9959,-0.9994,-1.0006,-1.0033,-1.0049,-1.0061,-1.0081,-1.0097,-1.0119,-1.0129,-1.0155,-1.0169,-1.0189,-1.0197,-1.0185,-1.0237,-1.0222,-1.0242,-1.0242,-1.0254,-1.0253,-1.0307,-1.0263,-1.0263,-1.0263,-1.0263,0,-0.9967,-0.9998,-1.0009,-1.0031,-1.0065,-1.0071,-1.0104,-1.0115,-1.0132,-1.0155,-1.0155,-1.0176,-1.0186,-1.0209,-1.0215,-1.0247,-1.0254,-1.0259,-1.026,-1.0258,-1.0258,-1.0268,-1.0265,-1.0265,-1.0264,-1.0264,-1.0264,0,-1.0012,-1.0021,-1.0059,-1.0079,-1.0084,-1.0108,-1.0125,-1.0145,-1.0153,-1.0182,-1.0189,-1.0203,-1.0229,-1.0238,-1.0271,-1.0275,-1.0311,-1.0311,-1.0304,-1.0304,-1.0322,-1.032,-1.0384,-1.0392,-1.0344,-1.0345,-1.0345,0,-1.0044,-1.0068,-1.0089,-1.0103,-1.0115,-1.0139,-1.0154,-1.0161,-1.0177,-1.02,-1.0217,-1.0242,-1.0263,-1.0304,-1.0316,-1.034,-1.034,-1.036,-1.0344,-1.034,-1.0338,-1.0336,-1.0338,-1.0364,-1.0364,-1.0365,-1.0365,0,-1.0101,-1.0103,-1.0125,-1.0147,-1.0165,-1.0183,-1.0201,-1.0213,-1.0221,-1.0239,-1.0264,-1.028,-1.0311,-1.0335,-1.0359,-1.037,-1.0368,-1.037,-1.0375,-1.0374,-1.0368,-1.037,-1.0311,-1.0369,-1.0368,-1.0368,-1.0368,-1.0368,-1.0139,-1.0158,-1.0175,-1.0198,-1.0212,-1.0227,-1.0246,-1.0255,-1.0276,-1.0301,-1.0303,-1.033,-1.0347,-1.0378,-1.039,-1.041,-1.0405,-1.0413,-1.0415,-1.0417,-1.0417,-1.0365,-1.0415,-1.0415,-1.0415,-1.0414,-1.0414,0,-1.0194,-1.0204,-1.0225,-1.0248,-1.0266,-1.0261,-1.0279,-1.0294,-1.0317,-1.0333,-1.0352,-1.0379,-1.0402,-1.0414,-1.0437,-1.045,-1.045,-1.0456,-1.0455,-1.0457,-1.0422,-1.0414,-1.0456,-1.0456,-1.0456,-1.0456,-1.0456,-1.0456,-1.0225,-1.0256,-1.0259,-1.0295,-1.0305,-1.033,-1.034,-1.0354,-1.0366,-1.0396,-1.0414,-1.0421,-1.0435,-1.0457,-1.0477,-1.048,-1.0488,-1.0494,-1.0496,-1.0464,-1.046,-1.0456,-1.0448,-1.0496,-1.0496,-1.0529,-1.053,-1.053]},{"header":{"parameterUnit":"m.s-1","parameterCategory":1,"la1":30.2991,"la2":30.254,"lo1":-89.0895,"lo2":-89.0444,"dy":0.0017,"dx":0.0017,"nx":28,"ny":28,"refTime":"2025-03-09T09:00:00:Z","depth":0,"parameterNumber":3,"parameterNumberName":"V-component_of_WINDS"},"data":[0,0,0,0,0,0,0,0,0,0,0,0,0,0,0,0,0,0,0,0,0,0,0,0,0,0,0,0,0,0,0,0,0,0,0,0,0,0,0,0,0,0,0,0,0,0,0,0,0,0,0,0,0,0,0,0,0,0,-0.5933,-0.5931,0,-0.5784,-0.5782,-0.578,-0.5828,-0.5831,-0.5835,-0.5838,-0.5678,-0.5671,-0.5664,0,0,0,0,0,0,0,0,0,0,0,0,0,-0.6251,-0.6245,-0.5933,-0.5931,-0.5929,-0.5784,-0.5782,-0.578,-0.5828,-0.5832,-0.5835,-0.5839,-0.568,-0.5672,-0.5663,0,0,0,0,0,0,0,0,0,0,0,0,0,-0.6108,-0.6243,-0.5933,-0.5936,-0.5935,-0.5784,-0.5782,-0.5779,-0.5827,-0.5832,-0.5836,-0.5841,-0.5683,-0.5673,-0.5662,-0.5498,0,0,-0.5629,-0.5624,0,0,0,0,0,0,0,0,-0.6116,-0.6096,-0.5937,-0.5935,-0.5934,-0.583,-0.5835,-0.5685,-0.5826,-0.5867,-0.5838,-0.5843,-0.5724,-0.571,-0.5671,-0.5491,-0.5484,-0.5628,-0.5621,-0.5616,-0.5613,0,0,0,0,0,0,0,-0.6126,-0.6103,-0.5874,-0.5935,-0.5933,-0.5941,-0.5927,-0.5807,-0.577,-0.5864,-0.5867,-0.5849,-0.5724,-0.5682,-0.5668,-0.5482,-0.5628,-0.5618,-0.5612,-0.5607,-0.5155,-0.5149,0,0,0,0,0,0,-0.6138,-0.6111,-0.5878,-0.5869,-0.6039,-0.5932,-0.5915,-0.5858,-0.5772,-0.5763,-0.5845,-0.5852,-0.5698,-0.5681,-0.5662,-0.5463,-0.5617,-0.5606,-0.56,-0.516,-0.5153,-0.5148,0,0,0,0,0,0,-0.6145,-0.6117,-0.5885,-0.5991,-0.5962,-0.5921,-0.5857,-0.5853,-0.5811,-0.5758,-0.5751,-0.581,-0.5701,-0.5678,-0.5538,-0.5458,-0.5601,-0.5592,-0.5167,-0.5158,-0.515,-0.5063,0,0,0,0,0,0,-0.6154,-0.6119,-0.6059,-0.5989,-0.5956,-0.5765,-0.5852,-0.5846,-0.5792,-0.58,-0.5722,-0.5714,-0.5703,-0.5554,-0.5527,-0.5445,-0.5583,-0.5174,-0.5163,-0.5153,-0.5073,-0.5053,-0.5036,0,0,0,0,0,-0.6165,-0.6039,-0.6055,-0.6027,-0.588,-0.5761,-0.5741,-0.5734,-0.5786,-0.5723,-0.5689,-0.5716,-0.5471,-0.554,-0.551,-0.5423,-0.5179,-0.5166,-0.5154,-0.5081,-0.5057,-0.5036,0,0,0,0,0,0,-0.6099,-0.6031,-0.6048,-0.5897,-0.5834,-0.5769,-0.569,-0.5708,-0.5628,-0.5638,-0.563,-0.5611,-0.5468,-0.5432,-0.5509,-0.5258,-0.5332,-0.5313,-0.5287,-0.5263,-0.5245,-0.5256,-0.5574,0,0,0,0,0,-0.6067,-0.5978,-0.5922,-0.5794,-0.5762,-0.5731,-0.5679,-0.5678,-0.5612,-0.5585,-0.5541,-0.5474,-0.5381,-0.5321,-0.5233,-0.5068,-0.505,-0.4993,-0.4975,-0.496,-0.4943,-0.4849,-0.4823,-0.5107,-0.5107,-0.5107,0,0,-0.6,-0.5951,-0.5896,-0.5779,-0.5731,-0.5636,-0.5709,-0.5606,-0.5534,-0.5569,-0.5435,-0.5399,-0.5323,-0.517,-0.51,-0.5135,-0.486,-0.4944,-0.4933,-0.4924,-0.4834,-0.4807,-0.4783,-0.5098,-0.51,-0.5101,0,0,-0.5829,-0.5784,-0.5671,-0.5621,-0.5548,-0.5527,-0.55,-0.5431,-0.5409,-0.5275,-0.5298,-0.5211,-0.5053,-0.4997,-0.4948,-0.4752,-0.4773,-0.4723,-0.4625,-0.4534,-0.4512,-0.4492,-0.4419,-0.4393,-0.4707,-0.4707,-0.4707,0,-0.5754,-0.5614,-0.561,-0.5505,-0.5451,-0.548,-0.5363,-0.5314,-0.5214,-0.5175,-0.5217,-0.5017,-0.4968,-0.48,-0.4752,-0.4712,-0.4678,-0.4732,-0.4516,-0.4496,-0.4477,-0.4407,-0.438,-0.4701,-0.4702,-0.4702,-0.4703,0,-0.5524,-0.5427,-0.5344,-0.5248,-0.5185,-0.5075,-0.5051,-0.4987,-0.4991,-0.4965,-0.4825,-0.4767,-0.4667,-0.4627,-0.4629,-0.4457,-0.4481,-0.4519,-0.4593,-0.4444,-0.4378,-0.4352,-0.4693,-0.4695,-0.4697,-0.4698,0,0,-0.5308,-0.5211,-0.518,-0.5136,-0.5055,-0.4978,-0.4866,-0.477,-0.4714,-0.4643,-0.4547,-0.4411,-0.4445,-0.4389,-0.4385,-0.4305,-0.4149,-0.4352,-0.435,-0.4314,-0.3952,-0.3923,-0.3892,-0.4163,-0.4158,-0.4154,-0.3958,0,-0.5129,-0.4936,-0.4928,-0.4751,-0.4658,-0.4682,-0.4585,-0.4523,-0.4495,-0.441,-0.4378,-0.4281,-0.4335,-0.43,-0.4223,-0.4185,-0.4076,-0.4199,-0.407,-0.4066,-0.4087,-0.3858,-0.3827,-0.3645,-0.3932,-0.3928,-0.3925,0,-0.4894,-0.4817,-0.4631,-0.4561,-0.4521,-0.4434,-0.4343,-0.4263,-0.4191,-0.4176,-0.4112,-0.4119,-0.4001,-0.4079,-0.3914,-0.3998,-0.3945,-0.3918,-0.391,-0.3896,-0.3985,-0.3836,-0.3587,-0.3558,-0.3885,-0.3888,-0.3891,0,-0.4752,-0.4601,-0.447,-0.4431,-0.4347,-0.4284,-0.4245,-0.4179,-0.412,-0.4039,-0.4,-0.3906,-0.3854,-0.3779,-0.3759,-0.3819,-0.3593,-0.3671,-0.3574,-0.3574,-0.3524,-0.3527,-0.3261,-0.3493,-0.3493,-0.3494,-0.3495,0,-0.4551,-0.4436,-0.4405,-0.4324,-0.4194,-0.4184,-0.4054,-0.4019,-0.3959,-0.3869,-0.3883,-0.3798,-0.3777,-0.3686,-0.3669,-0.3532,-0.3509,-0.3491,-0.3487,-0.3488,-0.349,-0.3452,-0.3463,-0.3487,-0.3488,-0.349,-0.3491,0,-0.437,-0.4346,-0.4203,-0.4135,-0.4114,-0.4021,-0.396,-0.388,-0.3854,-0.3739,-0.3712,-0.3669,-0.3562,-0.3534,-0.3407,-0.3395,-0.3233,-0.3243,-0.3258,-0.3258,-0.3161,-0.317,-0.2859,-0.2816,-0.3079,-0.3077,-0.3075,0,-0.4243,-0.4155,-0.4077,-0.4018,-0.3977,-0.3883,-0.3823,-0.3808,-0.3744,-0.3654,-0.3584,-0.348,-0.3395,-0.3223,-0.3178,-0.308,-0.3085,-0.2983,-0.307,-0.3073,-0.308,-0.3084,-0.3074,-0.2966,-0.2963,-0.2961,-0.2959,0,-0.4019,-0.4011,-0.3925,-0.3834,-0.3762,-0.3689,-0.3619,-0.3569,-0.3544,-0.3471,-0.3363,-0.3298,-0.3167,-0.3061,-0.2961,-0.2918,-0.2931,-0.2932,-0.2904,-0.2903,-0.2914,-0.2904,-0.321,-0.2939,-0.2941,-0.2942,-0.2943,-0.2944,-0.386,-0.3781,-0.3713,-0.3616,-0.3561,-0.3495,-0.3416,-0.3379,-0.3289,-0.3183,-0.3179,-0.306,-0.2987,-0.2854,-0.2805,-0.2709,-0.274,-0.27,-0.2689,-0.2679,-0.2669,-0.2931,-0.2691,-0.2692,-0.2692,-0.2693,-0.2693,0,-0.3634,-0.3591,-0.3502,-0.3403,-0.3326,-0.3349,-0.3271,-0.3204,-0.31,-0.3031,-0.2948,-0.2821,-0.2718,-0.2665,-0.2562,-0.2495,-0.2498,-0.2468,-0.2471,-0.246,-0.2649,-0.2683,-0.2466,-0.2467,-0.2467,-0.2467,-0.2467,-0.2467,-0.3507,-0.3375,-0.3357,-0.3196,-0.3153,-0.3039,-0.2992,-0.2929,-0.2874,-0.2733,-0.2648,-0.2614,-0.255,-0.2442,-0.2346,-0.2333,-0.2293,-0.2258,-0.2247,-0.2425,-0.2448,-0.247,-0.2501,-0.225,-0.225,-0.2066,-0.2064,-0.2063]}]]